7 * 24
多渠道服务支持
STARLINK-11485是美国SpaceX公司星链(Starlink)卫星互联网项目的一员,于2024年12月5日发射入轨。星链项目计划在近地轨道部署数万颗卫星,旨在为全球尤其是偏远地区提供低延迟、高速的宽带互联网服务。作为星链星座的补充,STARLINK-11485将进一步扩展全球网络覆盖能力,提升服务稳定性,助力实现全球互联的目标,同时也引发了有关天文观测和空间碎片的相关讨论。
美国
(US)
| 数据来源 | 国际轨道数据 |
| 星历时间: | 2026-09-10T20:38:18+0800 18小时前 查看轨道信息 |
| 半长轴: | 6737.705km |
| 偏心率: | 0.0002575 |
| 轨道倾角: | 53.157° |
| 近地点辐角 | 34.393° |
| 升交点赤经 | 269.982° |
| 平近点角 | 325.726° |
| 近地点: | 357.833km |
| 远地点: | 361.303km |
| 周期: | 91.733分钟 |
| 每日圈数: | 15.697656 |